Regional Weather Roundup
Issued by NWS

Home | Current Version | Previous Version | Graphics & Text | Print | Product List | Glossary On
Versions: 1 2 3 4 5 6 7 8 9 10 11 12 13 14 15 16 17 18 19 20 21 22 23 24 25 26 27 28 29 30 31 32 33 34 35 36 37 38 39 40 41 42 43 44 45 46 47 48
000
ASUS45 KTFX 300910
RWRMT
MONTANA REGIONAL WEATHER ROUNDUP
NATIONAL WEATHER SERVICE GREAT FALLS MT
300 AM MDT THU JUL 30 2015

NOTE: "FAIR" INDICATES FEW OR NO CLOUDS BELOW 12000 FEET WITH NO
SIGNIFICANT WEATHER AND/OR OBSTRUCTIONS TO VISIBILITY.

MTZ001>007-043-301000-
WEST OF THE DIVIDE

CITY           SKY/WX    TMP DP  RH WIND       PRES   REMARKS
KALISPELL      SUNNY     47  37  68 NW5       30.21R
MISSOULA       CLEAR     58  45  62 E3        30.26R
BUTTE          CLEAR     46  39  76 E5        30.38R
MULLAN PASS    CLEAR     61  27  27 S3        30.37R
DEER LODGE       N/A     48  39  71 CALM      30.36S
EUREKA           N/A     54  37  54 CALM      30.21R
HAMILTON         N/A     55  43  62 SW6       30.27R
LIBBY            N/A     48  37  66 CALM      30.21R
PLAINS           N/A     53  41  64 CALM      30.21R
RONAN            N/A     50  44  79 CALM      30.24S
$$

MTZ008-052>055-301000-
SOUTHWEST MONTANA

CITY           SKY/WX    TMP DP  RH WIND       PRES   REMARKS
BOZEMAN        CLEAR     49  43  80 SE6       30.31R
DILLON         CLEAR     53  42  66 S12       30.34R
W YELLOWSTONE  CLEAR     37  36  93 CALM      30.45S
THREE FORKS      N/A     50  30  46 CALM      30.27R
TWIN BRIDGES     N/A     52  42  68 E1        30.28S
$$

MTZ009-010-012-014-046-048-049-054-301000-
EAST SLOPES AND CENTRAL MONTANA

CITY           SKY/WX    TMP DP  RH WIND       PRES   REMARKS
CUT BANK       CLEAR     48  40  73 NW7       30.24S
GREAT FALLS    CLEAR     54  44  69 NE8       30.24R
MALMSTROM AFB  CLEAR     57  45  64 S9        30.23R
HELENA         CLEAR     59  41  51 S3        30.26S
CONRAD           N/A     50  44  79 W3        30.24R
$$

MTZ011-013-016-021-045-047-050-051-301000-
NORTH CENTRAL MONTANA

CITY           SKY/WX    TMP DP  RH WIND       PRES   REMARKS
HAVRE          MOCLDY    55  51  86 CALM      30.17S
LEWISTOWN      CLEAR     52  42  69 SE6       30.27R
CHINOOK          N/A     55  52  88 CALM      30.18R
FORT BENTON      N/A     57  46  67 CALM      30.21R
$$

MTZ017>020-022>027-061-062-301000-
NORTHEAST MONTANA

CITY           SKY/WX    TMP DP  RH WIND       PRES   REMARKS
GLASGOW        PTCLDY    60  53  77 N6        30.12R
JORDAN           N/A     53  47  79 CALM      30.15R
SIDNEY         PTCLDY    59  50  72 SW5       30.13R
WOLF POINT     PTCLDY    61  53  75 E6        30.13S
MALTA            N/A     55  48  77 MISG      30.11R
PLENTYWOOD       N/A     55  52  88 CALM      30.12S
POPLAR           N/A     61  52  72 CALM      30.14S
SCOBEY           N/A     53  46  77 CALM      30.13R
$$

MTZ028>42-056>058-301000-
SOUTHCENTRAL AND SOUTHEAST MONTANA

CITY           SKY/WX    TMP DP  RH WIND       PRES   REMARKS
BAKER          CLEAR     57  42  57 S6        30.19S
BILLINGS       CLEAR     60  40  47 SW9       30.25S
LIVINGSTON     CLEAR     50  42  74 NW8       30.31S
MILES CITY     CLEAR     56  47  71 SE8       30.17R
EKALAKA          N/A     57  37  47 SE7       30.19S
FORSYTH          N/A     66  41  39 CALM      30.18R
LAUREL           N/A     53  39  59 SW2       30.21S
ROUNDUP          N/A     54  42  63 CALM      30.13R
$$

REGIONAL REPORTS...DAKOTAS

CITY           SKY/WX    TMP DP  RH WIND       PRES   REMARKS
WILLISTON      PTCLDY    57  52  83 N6        30.14R
MINOT          PTCLDY    63  51  65 W14       30.07R
DICKINSON      CLEAR     51  45  79 S3        30.14R
BEACH          FAIR      52  46  82 SW6       30.17S
CROSBY         PTSUNNY   57  57 100 W6        30.10F
BISMARCK       CLEAR     57  50  77 CALM      30.11R
GRAND FORKS    CLEAR     63  57  81 W9        29.94R
FARGO          CLEAR     61  55  81 W8        29.98R
BUFFALO SD       N/A     56  40  55 W7        30.15R
RAPID CITY     CLEAR     57  47  69 N9        30.22S
$$

REGIONAL REPORTS...WYOMING/IDAHO/WASHINGTON

CITY           SKY/WX    TMP DP  RH WIND       PRES   REMARKS
GILLETTE       CLEAR     50  38  63 SW3       30.29S
SHERIDAN       CLEAR     49  41  74 CALM      30.27S
BUFFALO WY     CLEAR     58  35  42 W10       30.34S
CODY           CLEAR     61  36  39 SW5       30.34S
YELLOWSTONE LA   N/A     37  33  85 NW3       30.54R
IDAHO FALLS    CLEAR     46  41  82 N7        30.32R
SALMON         CLEAR     52  45  76 CALM      30.29R
BOISE          CLEAR     66  38  35 SE8       30.17R
SPOKANE        CLEAR     68  31  25 SE8       30.15R
$$

REGIONAL REPORTS...ALBERTA

CITY           SKY/WX    TMP DP  RH WIND       PRES   REMARKS
CALGARY        PTCLDY    50  45  81 VRB2      30.23R
LETHBRIDGE     CLEAR     48  45  87 SW6       30.21R
MEDICINE HAT   CLEAR     50  46  87 SW3       30.18R
WATERTON GATE    N/A     41  37  87 CALM        N/A
CARDSTON         N/A     48  39  71 SW5         N/A
MILK RIVER       N/A     48  43  81 NW9         N/A
ONEFOUR          N/A     55  48  76 N8          N/A
$$

REGIONAL REPORTS...SASKATCHEWAN

CITY           SKY/WX    TMP DP  RH WIND       PRES   REMARKS
SWIFT CURRENT  CLEAR     54  50  87 SW10      30.15R
REGINA         CLEAR     54  52  94 W7        30.08S
SASKATOON      PTCLDY    55  50  82 W8        30.07R
CYPRESS HILLS    N/A     55  41  58 N2          N/A
VAL MARIE        N/A     50  46  87 NW2         N/A
ROCKGLEN         N/A     52  50  93 S3          N/A
ASSINIBOIA       N/A     54  50  87 W8          N/A
$$



USA.gov is the U.S. government's official web portal to all federal, state and local government web resources and services.